Total_Precipitation_Accumulation
0.00 0.01 0.04 0.06 0.04 0.04 0.03 0.00 0.00 0.00 0.00 0.00 0.00 0.00 0.00 0.00 0.01 0.04 0.00 0.00 0.00 0.00 0.00 0.00 0.00 0.00 0.00 0.00 0.00 0.00 0.00 0.00 0.00 0.00 0.00 0.00 0.00 0.00 0.00 0.00 0.00 0.00 0.00 0.00 0.00 0.00 0.00 0.00 0.00
0.00 0.00 0.02 0.03 0.04 0.09 0.04 0.00 0.00 0.00 0.00 0.00 0.00 0.00 0.00 0.00 0.00 0.00 0.00 0.00 0.00 0.00 0.00 0.00 0.00 0.00 0.00 0.00 0.00 0.00 0.00 0.00 0.00 0.00 0.00 0.00 0.00 0.00 0.00 0.00 0.00 0.00 0.00 0.00 0.00 0.00 0.00 0.00 0.00
0.00 0.00 0.01 0.01 0.03 0.12 0.08 0.01 0.00 0.00 0.00 0.00 0.00 0.00 0.00 0.00 0.00 0.00 0.00 0.00 0.00 0.00 0.00 0.00 0.00 0.00 0.00 0.00 0.00 0.00 0.00 0.00 0.00 0.00 0.00 0.00 0.00 0.00 0.00 0.00 0.00 0.00 0.00 0.00 0.00 0.00 0.00 0.00 0.01
0.00 0.00 0.00 0.01 0.03 0.07 0.05 0.02 0.01 0.01 0.00 0.00 0.00 0.00 0.00 0.00 0.00 0.00 0.00 0.00 0.00 0.00 0.00 0.00 0.00 0.00 0.00 0.00 0.00 0.00 0.00 0.00 0.00 0.00 0.00 0.00 0.00 0.00 0.00 0.00 0.00 0.00 0.00 0.00 0.00 0.00 0.00 0.00 0.01
0.00 0.00 0.00 0.01 0.03 0.10 0.08 0.04 0.02 0.01 0.00 0.00 0.00 0.00 0.00 0.00 0.00 0.00 0.00 0.00 0.00 0.00 0.00 0.00 0.00 0.00 0.00 0.00 0.00 0.00 0.00 0.00 0.00 0.00 0.00 0.00 0.00 0.00 0.00 0.00 0.00 0.00 0.00 0.00 0.01 0.01 0.01 0.00 0.00
0.00 0.00 0.00 0.01 0.03 0.05 0.07 0.04 0.03 0.02 0.01 0.00 0.00 0.00 0.00 0.00 0.00 0.00 0.00 0.00 0.00 0.00 0.00 0.00 0.00 0.00 0.00 0.00 0.00 0.00 0.00 0.00 0.00 0.00 0.00 0.00 0.00 0.01 0.01 0.02 0.01 0.01 0.01 0.01 0.01 0.01 0.01 0.01 0.02
0.00 0.00 0.00 0.00 0.01 0.02 0.03 0.03 0.03 0.02 0.02 0.01 0.00 0.00 0.01 0.00 0.00 0.00 0.00 0.00 0.00 0.00 0.00 0.00 0.00 0.00 0.00 0.00 0.00 0.00 0.00 0.00 0.00 0.00 0.00 0.00 0.00 0.02 0.03 0.05 0.04 0.03 0.03 0.03 0.02 0.01 0.01 0.02 0.03
0.00 0.00 0.00 0.00 0.01 0.01 0.01 0.02 0.02 0.01 0.01 0.01 0.00 0.01 0.01 0.00 0.00 0.00 0.00 0.00 0.00 0.00 0.00 0.00 0.00 0.00 0.00 0.00 0.00 0.00 0.00 0.00 0.00 0.00 0.01 0.01 0.01 0.02 0.04 0.04 0.05 0.07 0.08 0.08 0.06 0.03 0.02 0.02 0.02
0.00 0.00 0.00 0.00 0.00 0.00 0.01 0.02 0.01 0.00 0.00 0.00 0.00 0.01 0.01 0.00 0.00 0.00 0.00 0.00 0.00 0.01 0.01 0.00 0.00 0.00 0.00 0.00 0.00 0.00 0.01 0.01 0.00 0.01 0.01 0.01 0.01 0.03 0.08 0.10 0.12 0.12 0.11 0.10 0.06 0.04 0.04 0.05 0.03
0.00 0.00 0.00 0.00 0.00 0.00 0.00 0.01 0.00 0.00 0.00 0.00 0.01 0.01 0.01 0.00 0.00 0.00 0.00 0.00 0.00 0.01 0.01 0.01 0.00 0.00 0.00 0.00 0.00 0.00 0.01 0.02 0.02 0.03 0.08 0.10 0.15 0.13 0.07 0.14 0.22 0.18 0.18 0.13 0.10 0.10 0.08 0.08 0.10
0.00 0.00 0.00 0.00 0.00 0.00 0.00 0.00 0.00 0.00 0.00 0.01 0.04 0.06 0.03 0.01 0.00 0.00 0.00 0.00 0.00 0.00 0.00 0.00 0.00 0.01 0.01 0.00 0.00 0.00 0.01 0.05 0.05 0.06 0.12 0.21 0.20 0.13 0.09 0.08 0.14 0.20 0.17 0.13 0.22 0.28 0.18 0.20 0.29
0.00 0.00 0.00 0.00 0.00 0.00 0.00 0.00 0.00 0.00 0.00 0.01 0.03 0.08 0.11 0.06 0.01 0.00 0.00 0.00 0.00 0.00 0.01 0.01 0.01 0.01 0.01 0.01 0.01 0.01 0.01 0.03 0.03 0.07 0.07 0.14 0.15 0.09 0.06 0.07 0.08 0.11 0.13 0.22 0.27 0.31 0.25 0.30 0.28
0.00 0.00 0.00 0.00 0.00 0.00 0.00 0.00 0.00 0.00 0.00 0.00 0.00 0.01 0.03 0.02 0.01 0.00 0.00 0.00 0.00 0.00 0.01 0.02 0.02 0.03 0.05 0.06 0.05 0.03 0.02 0.01 0.01 0.03 0.04 0.07 0.12 0.10 0.11 0.12 0.11 0.08 0.11 0.23 0.32 0.30 0.34 0.42 0.40
0.00 0.00 0.00 0.00 0.00 0.00 0.00 0.00 0.00 0.00 0.00 0.00 0.00 0.00 0.00 0.00 0.02 0.02 0.01 0.01 0.01 0.02 0.03 0.05 0.07 0.10 0.12 0.13 0.11 0.08 0.06 0.06 0.05 0.06 0.07 0.10 0.17 0.22 0.25 0.22 0.26 0.23 0.26 0.34 0.43 0.47 0.61 0.60 0.59
0.00 0.00 0.00 0.00 0.00 0.00 0.00 0.00 0.00 0.00 0.00 0.00 0.00 0.00 0.00 0.01 0.01 0.02 0.04 0.03 0.03 0.04 0.06 0.10 0.17 0.23 0.23 0.19 0.15 0.14 0.15 0.16 0.18 0.22 0.26 0.30 0.34 0.41 0.47 0.41 0.39 0.49 0.57 0.60 0.63 0.70 0.80 0.76 0.73
0.00 0.00 0.00 0.00 0.00 0.00 0.00 0.00 0.00 0.00 0.00 0.00 0.01 0.01 0.01 0.01 0.01 0.02 0.03 0.04 0.05 0.07 0.12 0.20 0.31 0.33 0.32 0.31 0.30 0.27 0.26 0.28 0.31 0.36 0.38 0.44 0.52 0.61 0.63 0.49 0.46 0.76 0.83 0.83 0.92 0.94 0.99 1.09 1.08
0.00 0.00 0.00 0.00 0.00 0.00 0.00 0.00 0.00 0.00 0.00 0.01 0.02 0.02 0.03 0.02 0.02 0.03 0.06 0.09 0.11 0.15 0.23 0.36 0.45 0.49 0.54 0.50 0.44 0.40 0.40 0.36 0.33 0.37 0.41 0.50 0.63 0.72 0.81 0.62 0.63 0.94 1.05 1.05 1.05 1.20 1.35 1.32 1.33
0.00 0.00 0.00 0.00 0.00 0.00 0.00 0.00 0.00 0.02 0.04 0.04 0.03 0.05 0.05 0.04 0.05 0.08 0.13 0.16 0.20 0.27 0.33 0.36 0.48 0.62 0.76 0.78 0.66 0.53 0.43 0.35 0.34 0.37 0.40 0.46 0.57 0.78 0.99 0.78 0.83 1.11 1.14 1.10 1.23 1.34 1.46 1.36 1.43
0.00 0.00 0.00 0.00 0.00 0.00 0.00 0.00 0.00 0.00 0.03 0.05 0.05 0.06 0.09 0.14 0.12 0.13 0.20 0.22 0.20 0.22 0.28 0.41 0.58 0.70 0.76 0.83 0.79 0.70 0.53 0.49 0.42 0.41 0.47 0.56 0.66 0.84 1.11 0.96 1.03 1.13 1.08 1.04 1.21 1.32 1.26 1.16 1.53
0.00 0.00 0.00 0.00 0.00 0.00 0.00 0.00 0.01 0.02 0.05 0.08 0.09 0.13 0.17 0.19 0.22 0.29 0.37 0.33 0.26 0.27 0.36 0.47 0.53 0.59 0.62 0.69 0.77 0.83 0.89 0.79 0.69 0.70 0.77 0.80 0.88 0.95 1.07 1.11 1.06 1.09 1.05 0.92 0.95 1.12 1.05 0.84 1.23
0.00 0.00 0.00 0.00 0.00 0.00 0.00 0.00 0.01 0.04 0.08 0.16 0.23 0.28 0.36 0.40 0.48 0.52 0.52 0.49 0.43 0.37 0.43 0.50 0.50 0.52 0.60 0.74 0.88 0.98 1.09 1.04 1.05 1.12 1.20 1.12 1.14 1.12 1.17 1.09 1.05 1.02 1.02 0.86 0.80 0.95 1.00 0.83 0.92
0.00 0.00 0.00 0.00 0.00 0.00 0.00 0.00 0.00 0.02 0.10 0.23 0.34 0.39 0.47 0.46 0.44 0.44 0.48 0.51 0.46 0.46 0.50 0.60 0.62 0.62 0.76 0.98 1.10 1.15 1.29 1.42 1.57 1.78 1.73 1.58 1.44 1.30 1.20 1.04 0.91 0.81 0.81 0.74 0.72 0.83 0.91 0.92 0.76
0.00 0.00 0.00 0.00 0.00 0.00 0.00 0.00 0.01 0.02 0.10 0.27 0.37 0.42 0.42 0.39 0.34 0.36 0.47 0.56 0.60 0.57 0.59 0.74 0.80 0.92 1.12 1.30 1.42 1.51 1.58 1.67 1.67 1.68 1.59 1.46 1.36 1.22 1.09 0.96 0.86 0.79 0.73 0.67 0.65 0.68 0.71 0.74 0.68
0.00 0.00 0.00 0.00 0.01 0.03 0.04 0.03 0.02 0.03 0.10 0.17 0.16 0.21 0.28 0.28 0.27 0.32 0.44 0.71 0.94 0.94 0.88 0.92 1.02 1.16 1.30 1.37 1.45 1.48 1.44 1.40 1.31 1.20 1.09 0.99 0.93 0.84 0.76 0.67 0.59 0.58 0.57 0.58 0.57 0.57 0.58 0.59 0.61
0.00 0.00 0.00 0.02 0.08 0.13 0.11 0.06 0.05 0.05 0.05 0.07 0.09 0.10 0.13 0.16 0.26 0.28 0.30 0.38 0.46 0.52 0.55 0.56 0.59 0.74 0.87 0.93 0.96 0.98 0.95 0.88 0.80 0.72 0.65 0.60 0.52 0.44 0.39 0.36 0.36 0.36 0.36 0.37 0.40 0.40 0.42 0.46 0.50
0.00 0.00 0.00 0.01 0.01 0.02 0.03 0.04 0.07 0.08 0.04 0.03 0.03 0.03 0.05 0.08 0.11 0.13 0.13 0.15 0.28 0.42 0.53 0.56 0.51 0.49 0.48 0.52 0.55 0.51 0.52 0.50 0.47 0.50 0.45 0.42 0.40 0.34 0.30 0.29 0.31 0.32 0.32 0.31 0.34 0.35 0.34 0.37 0.41
0.00 0.00 0.00 0.00 0.00 0.00 0.01 0.04 0.08 0.10 0.12 0.09 0.04 0.02 0.03 0.03 0.03 0.04 0.05 0.06 0.15 0.29 0.37 0.39 0.41 0.43 0.46 0.48 0.45 0.37 0.33 0.34 0.35 0.37 0.38 0.41 0.44 0.37 0.36 0.38 0.41 0.42 0.44 0.43 0.40 0.39 0.37 0.42 0.47
0.01 0.00 0.00 0.00 0.01 0.00 0.00 0.06 0.14 0.17 0.22 0.15 0.04 0.02 0.01 0.01 0.01 0.02 0.02 0.03 0.06 0.13 0.23 0.31 0.36 0.40 0.45 0.48 0.46 0.39 0.32 0.27 0.27 0.31 0.37 0.40 0.39 0.40 0.42 0.44 0.47 0.48 0.46 0.43 0.39 0.39 0.40 0.47 0.52
0.01 0.01 0.00 0.00 0.00 0.01 0.03 0.08 0.09 0.12 0.10 0.08 0.04 0.02 0.01 0.00 0.00 0.02 0.06 0.11 0.18 0.27 0.37 0.43 0.44 0.41 0.42 0.44 0.44 0.40 0.35 0.32 0.31 0.32 0.35 0.37 0.37 0.38 0.42 0.45 0.46 0.46 0.46 0.44 0.45 0.45 0.48 0.51 0.54
0.01 0.00 0.00 0.01 0.00 0.00 0.03 0.10 0.05 0.05 0.05 0.03 0.02 0.01 0.01 0.01 0.02 0.06 0.13 0.20 0.25 0.33 0.42 0.46 0.51 0.53 0.56 0.60 0.65 0.71 0.68 0.61 0.52 0.40 0.36 0.40 0.44 0.44 0.45 0.47 0.48 0.47 0.49 0.55 0.59 0.58 0.62 0.64 0.63